Regional Weather Roundup
Issued by NWS State College, PA

Home | Current Version | Previous Version | Graphics & Text | Print | Product List | Glossary Off
Versions: 1 2 3 4 5 6 7 8 9 10 11 12 13 14 15 16 17 18 19 20 21 22 23 24 25 26 27 28 29 30 31 32 33 34 35 36 37 38 39 40 41 42 43 44 45 46 47 48 49 50

000
ASUS41 KCTP 270303
RWRCTP

REGIONAL WEATHER ROUNDUP
NATIONAL WEATHER SERVICE STATE COLLEGE PA
1100 PM EDT TUE JUL 26 2016

Note: "fair" indicates few or no clouds below 12,000 feet with no
significant weather and/or obstructions to visibility.

* = STATION THAT DOES NOT REPORT PRECIPITATION /E.G. RAIN...SNOW...ETC/
    THUNDER OR FOG.

PAZ002>004-007>009-013>016-020>023-029>032-270400-
WESTERN PENNSYLVANIA

CITY           SKY/WX    TMP DP  RH WIND       PRES   REMARKS
ERIE           CLEAR     69  62  78 S6        30.01F
MEADVILLE      CLEAR     65  58  78 CALM      30.05
FRANKLIN*      CLEAR     64  55  72 N3        30.07F
NEW CASTLE     FAIR      66  62  87 VRB3      30.03F
BEAVER COUNTY  NOT AVBL
BUTLER*        CLOUDY    70  59  68 NE3       30.06S
PITTSBURGH INT CLOUDY    76  58  53 N3        30.02R
PITTSBURGH     PTCLDY    76  58  53 VRB5      30.01S
INDIANA*       CLOUDY    73  61  64 CALM      30.06S
LATROBE        PTCLDY    73  63  68 CALM      30.03S
WASHINGTON CO* MOCLDY    75  61  60 N5        30.02S
$$

PAZ004>006-010>012-017>019-024>028-033>037-041-042-045-046-049>053-270400-
CENTRAL PENNSYLVANIA

CITY           SKY/WX    TMP DP  RH WIND       PRES   REMARKS
BRADFORD       CLEAR     61  57  87 CALM      30.06F
DUBOIS         PTCLDY    70  58  65 N5        30.05S
CLEARFIELD     PTCLDY    69  58  67 N5        30.03S
JOHNSTOWN      CLOUDY    75  55  49 N6        30.07S
ALTOONA        MOCLDY    76  57  51 NW5       30.03S
STATE COLLEGE  PTCLDY    71  59  64 CALM      30.01S
WILLIAMSPORT   PTCLDY    74  63  68 CALM      29.95R
SELINSGROVE    CLOUDY    70  70 100 NE3       29.95S
FT INDIANTOWN  PTCLDY    74  66  76 VRB1      29.93F
CAPITAL CITY   CLOUDY    81  71  71 CALM      29.92F
HARRISBURG     CLOUDY    82  74  76 CALM      29.91F
YORK           CLOUDY    79  69  71 CALM      29.93F
$$

PAZ038>040-043-044-047-048-054-055-060>062-067>071-270400-
EASTERN PENNSYLVANIA

CITY           SKY/WX    TMP DP  RH WIND       PRES   REMARKS
SCRANTON       CLOUDY    72  61  68 E6        29.98R
MOUNT POCONO   MOCLDY    66  59  78 CALM      30.02S
ALLENTOWN      CLOUDY    76  67  73 CALM      29.94R
QUAKERTOWN*    PTCLDY    73  66  78 CALM      29.96R
READING        CLOUDY    80  64  58 N3        29.92S
LANCASTER      CLOUDY    81  70  69 SW6       29.93F
COATESVILLE    CLOUDY    79  72  78 W3        29.96F
POTTSTOWN      CLOUDY    76  68  76 CALM      29.95S
BLUE BELL      MOCLDY    70  70 100 CALM      29.92F
DOYLESTOWN     PTCLDY    75  65  70 CALM      29.94R
WILLOW GROVE   NOT AVBL
NORTH PHILA    PTCLDY    83  71  67 W3        29.93S
PHILADELPHIA   CLOUDY    83  73  72 W6        29.92F
$$




USA.gov is the U.S. government's official web portal to all federal, state and local government web resources and services.